Regional Weather Roundup
Issued by NWS Charleston, WV

Home | Current Version | Previous Version | Text Only | Print | Product List | Glossary Off
Versions: 1 2 3 4 5 6 7 8 9 10 11 12 13 14 15 16 17 18 19 20 21 22 23 24 25 26 27 28 29 30 31 32 33 34 35 36 37 38 39 40 41 42 43 44 45 46 47 48 49 50

000
ASUS41 KRLX 041610
RWRRLX
West Virginia Regional Weather Roundup
National Weather Service Charleston WV
1200 PM EDT MON MAY 04 2015

Note: "fair" indicates few or no clouds below 12,000 feet with no
significant weather and/or obstructions to visibility.

WVZ003-041700-
Northern Panhandle of West Virginia

CITY           SKY/WX    TMP DP  RH WIND       PRES   REMARKS
WHEELING       SUNNY     76  45  33 SW16      30.19F
$$

WVZ009-041700-
Northwest West Virginia

CITY           SKY/WX    TMP DP  RH WIND       PRES   REMARKS
PARKERSBURG    SUNNY     77  48  35 W10G17    30.25S
$$

WVZ006-041700-
Western West Virginia

CITY           SKY/WX    TMP DP  RH WIND       PRES   REMARKS
HUNTINGTON     MOSUNNY   77  52  41 SW8       30.25S
$$

WVZ015-041700-
West Central West Virginia

CITY           SKY/WX    TMP DP  RH WIND       PRES   REMARKS
CHARLESTON     MOSUNNY   78  48  34 W7        30.26R
$$

WVZ022-031-041700-
North Central West Virginia

CITY           SKY/WX    TMP DP  RH WIND       PRES   REMARKS
CLARKSBURG     SUNNY     76  47  35 SW12      30.23S
MORGANTOWN     SUNNY     78  41  26 SW8G18    30.24S
$$

WVZ025-035-042-045-041700-
Southern West Virginia

CITY           SKY/WX    TMP DP  RH WIND       PRES   REMARKS
BECKLEY        MOSUNNY   73  45  36 SW12G22   30.33R
LOGAN            N/A     75  48  38 SW8       30.26S
BLUEFIELD      MOSUNNY   73  43  33 W9G20     30.35R
LEWISBURG      SUNNY     73  46  39 SW6       30.32S
$$

WVZ047-041700-
Northern Mountains of West Virginia

CITY           SKY/WX    TMP DP  RH WIND       PRES   REMARKS
ELKINS         MOSUNNY   76  42  29 W12       30.26F
$$

WVZ052-041700-
Eastern Panhandle of West Virginia

CITY           SKY/WX    TMP DP  RH WIND       PRES   REMARKS
MARTINSBURG    SUNNY     79  51  37 VRB7      30.21F
PETERSBURG     SUNNY     79  43  27 W6        30.22S
$$



USA.gov is the U.S. government's official web portal to all federal, state and local government web resources and services.